Gwinner, ND

3:12 PM CDT on April 23, 2017 (GMT -0500)
Gwinner-melroe

Weather History for KGWR - April, 2014

Change the Weather History Date:

Monday, April 7, 2014

  Actual Average (KP67) Record (KP67)
Temperature  
Mean Temperature 44 °F -  
Max Temperature 55 °F 40 °F 44 °F (1998)
Min Temperature 32 °F 25 °F 6 °F (1997)
Degree Days  
Heating Degree Days 22    
Moisture  
Dew Point 37 °F    
Average Humidity 85    
Maximum Humidity 100    
Minimum Humidity 44    
Precipitation  
Precipitation 0.05 in - - ()
Sea Level Pressure  
Sea Level Pressure 29.89 in    
Wind  
Wind Speed 8 mph (NW)    
Max Wind Speed 22 mph    
Max Gust Speed 32 mph    
Visibility 10 miles    
Events      
Averages and records for this station are not official NWS values.
T = Trace of Precipitation, MM = Missing Value Source: NWS Daily Summary

Daily Weather History Graph

Daily Weather History Graph

Search for Another Location

Airport or City:

Trip Planner

Search our weather history database for the weather conditions in past years. The results will help you decide how hot, cold, wet, or windy it might be!

Date:

Astronomy

Apr. 07, 2014 Rise Set
Actual Time 6:58 AM CDT 8:07 PM CDT
Civil Twilight 6:28 AM CDT 8:38 PM CDT
Nautical Twilight 5:51 AM CDT 9:15 PM CDT
Astronomical Twilight 5:12 AM CDT 9:54 PM CDT
Moon 12:47 PM CDT (4/7) 2:54 AM CDT (4/7)
Length of Visible Light 14h 10m
Length of Day
13h 08m
First Quarter, 53% of the Moon is Illuminated
Apr 7
First Quarter
Apr 15
Full
Apr 22
Last Quarter
Apr 29
New
May 6
First Quarter

Hourly Weather History & Observations

Time (CDT) Temp. Windchill Dew Point Humidity Pressure Visibility Wind Dir Wind Speed Gust Speed Precip Events Conditions
12:15 AM 35.6 °F - 35.6 °F 100% 29.81 in 5.0 mi Calm Calm - 0.00 in   Clear
12:35 AM 35.6 °F 32.8 °F 35.6 °F 100% 29.81 in 3.0 mi SW 3.5 mph - 0.00 in   Clear
12:55 AM 33.8 °F 27.7 °F 33.8 °F 100% 29.81 in 6.0 mi West 6.9 mph - 0.00 in   Clear
1:15 AM 35.6 °F 30.7 °F 35.6 °F 100% 29.82 in 10.0 mi WSW 5.8 mph - 0.00 in   Clear
1:35 AM 35.6 °F - 35.6 °F 100% 29.82 in 10.0 mi Calm Calm - 0.00 in   Clear
1:55 AM 35.6 °F 31.7 °F 35.6 °F 100% 29.82 in 10.0 mi West 4.6 mph - 0.00 in   Clear
2:15 AM 35.6 °F 29.9 °F 35.6 °F 100% 29.82 in 10.0 mi NW 6.9 mph - 0.00 in   Clear
2:35 AM 35.6 °F 31.7 °F 35.6 °F 100% 29.82 in 10.0 mi NW 4.6 mph - 0.00 in   Partly Cloudy
2:55 AM 35.6 °F - 35.6 °F 100% 29.82 in 10.0 mi Calm Calm - 0.00 in   Clear
3:15 AM 33.8 °F 30.8 °F 33.8 °F 100% 29.83 in 10.0 mi WSW 3.5 mph - 0.00 in   Clear
3:35 AM 32.0 °F 28.7 °F 32.0 °F 100% 29.83 in 10.0 mi East 3.5 mph - 0.00 in   Clear
3:55 AM 32.0 °F - 32.0 °F 100% 29.83 in 10.0 mi Calm Calm - 0.00 in   Clear
4:15 AM 32.0 °F 27.5 °F 32.0 °F 100% 29.82 in 10.0 mi South 4.6 mph - 0.00 in   Clear
4:35 AM 32.0 °F 25.6 °F 32.0 °F 100% 29.82 in 10.0 mi SW 6.9 mph - 0.00 in   Clear
4:55 AM 32.0 °F 27.5 °F 32.0 °F 100% 29.83 in 10.0 mi West 4.6 mph - 0.00 in   Clear
5:15 AM 32.0 °F 24.8 °F 32.0 °F 100% 29.83 in 10.0 mi WNW 8.1 mph - 0.00 in   Clear
5:35 AM 35.6 °F 27.5 °F 35.6 °F 100% 29.83 in 10.0 mi NW 11.5 mph - 0.00 in   Clear
5:55 AM 35.6 °F 28.0 °F 35.6 °F 100% 29.83 in 10.0 mi NW 10.4 mph - 0.00 in   Clear
6:15 AM 35.6 °F 28.0 °F 35.6 °F 100% 29.84 in 10.0 mi NW 10.4 mph - 0.00 in   Clear
6:35 AM 35.6 °F 28.0 °F 35.6 °F 100% 29.84 in 10.0 mi NNW 10.4 mph - 0.00 in   Clear
6:55 AM 35.6 °F 26.6 °F 35.6 °F 100% 29.85 in 10.0 mi NNW 13.8 mph - 0.00 in   Clear
7:15 AM 35.6 °F 27.1 °F 35.6 °F 100% 29.86 in 10.0 mi NNW 12.7 mph - 0.00 in   Clear
7:35 AM 35.6 °F 26.6 °F 35.6 °F 100% 29.87 in 10.0 mi NNW 13.8 mph - 0.00 in   Clear
7:55 AM 37.4 °F 30.3 °F 37.4 °F 100% 29.88 in 10.0 mi NNW 10.4 mph - 0.00 in   Clear
8:15 AM 37.4 °F 30.3 °F 37.4 °F 100% 29.89 in 10.0 mi NNW 10.4 mph - 0.00 in   Clear
8:35 AM 37.4 °F 29.8 °F 35.6 °F 93% 29.89 in 10.0 mi NNW 11.5 mph - 0.00 in   Clear
8:55 AM 39.2 °F 31.6 °F 35.6 °F 87% 29.89 in 10.0 mi NNW 12.7 mph - 0.00 in   Clear
9:15 AM 39.2 °F 31.6 °F 37.4 °F 93% 29.90 in 10.0 mi NNW 12.7 mph - 0.00 in   Clear
9:35 AM 39.2 °F 32.0 °F 37.4 °F 93% 29.90 in 10.0 mi North 11.5 mph - 0.00 in   Clear
9:55 AM 42.8 °F 36.6 °F 37.4 °F 81% 29.90 in 10.0 mi North 11.5 mph - 0.00 in   Clear
10:15 AM 42.8 °F 36.6 °F 37.4 °F 81% 29.90 in 10.0 mi North 11.5 mph - 0.00 in   Clear
10:55 AM 46.4 °F 42.9 °F 41.0 °F 81% 29.91 in 10.0 mi North 6.9 mph - 0.00 in   Partly Cloudy
11:15 AM 46.4 °F 42.9 °F 39.2 °F 76% 29.92 in 10.0 mi NNW 6.9 mph - 0.00 in   Clear
11:35 AM 48.2 °F - 41.0 °F 76% 29.92 in 10.0 mi NNW 6.9 mph - 0.00 in   Clear
11:55 AM 50.0 °F - 42.8 °F 76% 29.93 in 10.0 mi NNW 9.2 mph - 0.00 in   Clear
12:15 PM 51.8 °F - 39.2 °F 62% 29.93 in 10.0 mi NW 9.2 mph 17.3 mph 0.00 in   Clear
12:35 PM 51.8 °F - 41.0 °F 67% 29.93 in 10.0 mi NNW 9.2 mph - 0.00 in   Clear
12:55 PM 51.8 °F - 37.4 °F 58% 29.93 in 10.0 mi WNW 9.2 mph - 0.00 in   Clear
1:15 PM 53.6 °F - 37.4 °F 54% 29.93 in 10.0 mi NW 10.4 mph - 0.00 in   Clear
1:35 PM 53.6 °F - 37.4 °F 54% 29.92 in 10.0 mi NNW 11.5 mph 16.1 mph 0.00 in   Clear
1:55 PM 53.6 °F - 35.6 °F 51% 29.92 in 10.0 mi NW 11.5 mph - 0.00 in   Clear
2:15 PM 55.4 °F - 33.8 °F 44% 29.92 in 10.0 mi NW 12.7 mph - 0.00 in   Clear
2:35 PM 55.4 °F - 35.6 °F 47% 29.91 in 10.0 mi NW 13.8 mph 18.4 mph 0.00 in   Clear
2:55 PM 55.4 °F - 33.8 °F 44% 29.91 in 10.0 mi NW 11.5 mph - 0.00 in   Clear
3:15 PM 55.4 °F - 35.6 °F 47% 29.91 in 10.0 mi WNW 15.0 mph 21.9 mph 0.00 in   Clear
3:35 PM 55.4 °F - 35.6 °F 47% 29.90 in 10.0 mi WNW 10.4 mph - 0.00 in   Clear
4:15 PM 55.4 °F - 35.6 °F 47% 29.89 in 10.0 mi NNW 9.2 mph 18.4 mph 0.00 in   Scattered Clouds
4:35 PM 53.6 °F - 35.6 °F 51% 29.89 in 10.0 mi NW 10.4 mph - 0.00 in   Mostly Cloudy
4:55 PM 48.2 °F - 41.0 °F 76% 29.91 in 2.5 mi North 4.6 mph 29.9 mph 0.02 in   Mostly Cloudy
5:15 PM 44.6 °F 38.1 °F 44.6 °F 100% 29.91 in 4.0 mi North 13.8 mph - 0.00 in   Overcast
5:35 PM 48.2 °F - 44.6 °F 87% 29.91 in 10.0 mi North 9.2 mph - 0.00 in   Partly Cloudy
5:55 PM 48.2 °F - 44.6 °F 87% 29.91 in 10.0 mi NNW 9.2 mph - 0.00 in   Clear
6:15 PM 51.8 °F - 42.8 °F 71% 29.90 in 10.0 mi NW 12.7 mph 16.1 mph 0.00 in   Clear
6:35 PM 50.0 °F - 42.8 °F 76% 29.91 in 10.0 mi NW 12.7 mph - 0.00 in   Scattered Clouds
6:55 PM 48.2 °F - 42.8 °F 82% 29.91 in 10.0 mi NNW 11.5 mph - 0.01 in   Mostly Cloudy
7:15 PM 44.6 °F 36.1 °F 42.8 °F 93% 29.93 in 2.5 mi WNW 21.9 mph 32.2 mph 0.02 in   Mostly Cloudy
7:35 PM 44.6 °F 39.2 °F 39.2 °F 81% 29.92 in 10.0 mi WNW 10.4 mph - 0.02 in   Mostly Cloudy
7:55 PM 44.6 °F 38.4 °F 39.2 °F 81% 29.92 in 10.0 mi NW 12.7 mph - 0.02 in   Partly Cloudy
8:15 PM 44.6 °F 38.8 °F 39.2 °F 81% 29.92 in 10.0 mi NW 11.5 mph - 0.00 in   Clear
8:35 PM 42.8 °F 36.2 °F 39.2 °F 87% 29.93 in 10.0 mi NW 12.7 mph - 0.00 in   Clear
8:55 PM 42.8 °F 36.2 °F 39.2 °F 87% 29.94 in 10.0 mi NW 12.7 mph - 0.00 in   Partly Cloudy
9:15 PM 41.0 °F 33.1 °F 39.2 °F 93% 29.94 in 10.0 mi NW 15.0 mph - 0.00 in   Scattered Clouds
9:35 PM 41.0 °F 34.3 °F 39.2 °F 93% 29.95 in 10.0 mi NNW 11.5 mph - 0.00 in   Mostly Cloudy
9:55 PM 41.0 °F 33.9 °F 39.2 °F 93% 29.95 in 10.0 mi NNW 12.7 mph - 0.00 in   Mostly Cloudy
10:15 PM 41.0 °F 33.9 °F 39.2 °F 93% 29.95 in 10.0 mi NW 12.7 mph - 0.00 in   Mostly Cloudy
10:35 PM 41.0 °F 33.1 °F 39.2 °F 93% 29.96 in 10.0 mi NW 15.0 mph 20.7 mph 0.00 in   Mostly Cloudy
10:55 PM 39.2 °F 31.6 °F 39.2 °F 100% 29.96 in 10.0 mi NW 12.7 mph - 0.00 in   Scattered Clouds
11:15 PM 39.2 °F 30.8 °F 39.2 °F 100% 29.97 in 10.0 mi NNW 15.0 mph - 0.00 in   Scattered Clouds
11:35 PM 39.2 °F 29.8 °F 39.2 °F 100% 29.97 in 10.0 mi NNW 18.4 mph - 0.00 in   Partly Cloudy
11:55 PM 39.2 °F 30.5 °F 39.2 °F 100% 29.98 in 10.0 mi NNW 16.1 mph - 0.00 in   Clear